Location: Newark
(43.0000°N, 1.6781°W)
Time: 10:23:32
(UTC+00:00)

Vanguard 1 Rocket - Pass Details

Date: 15 October 2022
Orbit: 650 x 4225 km, 34.3° (Epoch: 04 December)

Event Time Altitude Azimuth Distance (km) Brightness Sun altitude
Rises 21:12:58 0° 278° (W) 8,306 13.0 -41.2°
Reaches altitude 10° 21:19:27 10° 274° (W) 6,987 12.4 -42.2°
Enters shadow 21:38:48 47° 213° (SSW) 3,246 9.9 -45.0°
